Regional Weather Roundup
Issued by NWS Wilmington, NC

Home | Current Version | Previous Version | Text Only | Print | Product List | Glossary On
Versions: 1 2 3 4 5 6 7 8 9 10 11 12 13 14 15 16 17 18 19 20 21 22 23 24 25 26 27 28 29 30 31 32 33 34 35 36 37 38 39 40 41 42 43 44 45 46 47 48 49 50
000
ASUS42 KILM 270810
RWRILM
RWRILM
REGIONAL HOURLY WEATHER ROUNDUP
NATIONAL WEATHER SERVICE WILMINGTON NC
300 AM EST SAT DEC 27 2014

NOTE: "FAIR" INDICATES FEW OR NO CLOUDS BELOW 12,000 FEET WITH NO
SIGNIFICANT WEATHER AND/OR OBSTRUCTIONS TO VISIBILITY.

...............WFO WILMINGTON COUNTY WARNING AREA...............

......COASTAL NC AND SC COUNTIES......

CITY           SKY/WX    TMP DP  RH WIND       PRES   REMARKS
WILMINGTON     CLEAR     37  35  92 CALM      30.30F
SOUTHPORT      CLEAR     38  37  96 CALM      30.30F
N MYRTLE BEACH CLEAR     36  35  96 CALM      30.30S FOG
MYRTLE BEACH   CLEAR     39  36  87 CALM      30.30S

......INLAND NC AND SC COUNTIES.......

CITY           SKY/WX    TMP DP  RH WIND       PRES   REMARKS
LUMBERTON      CLEAR     35  33  92 CALM      30.30R
ELIZABETHTOWN  PTCLDY    35  33  94 CALM      30.30S
WHITEVILLE     CLEAR     36  34  92 CALM      30.29F
FLORENCE       CLEAR     36  34  92 CALM      30.30R
DARLINGTON     CLEAR     36  30  80 CALM      30.32R

....................REST OF NORTH CAROLINA......................

.........EASTERN NC.........

CITY           SKY/WX    TMP DP  RH WIND       PRES   REMARKS
CAPE HATTERAS  CLEAR     39  38  96 NW5       30.30S
JACKSONVILLE   CLEAR     32  28  86 CALM      30.31F
MOREHEAD CITY  CLEAR     38  37  97 CALM      30.31S
KENANSVILLE    CLEAR     32  32 100 CALM      30.32S
NEW BERN       PTCLDY    36  32  85 CALM      30.32S
ELIZABETH CITY PTCLDY    39  35  86 CALM      30.30F

.........CENTRAL NC.........

CITY           SKY/WX    TMP DP  RH WIND       PRES   REMARKS
RALEIGH DURHAM PTCLDY    35  32  88 CALM      30.29S
ROCKY MOUNT    CLEAR     34  33  96 S3        30.29F
ROANOKE RAPIDS NOT AVBL
FAYETTEVILLE   CLEAR     36  33  89 CALM      30.30R
HOFFMAN        MOCLDY    29  29  99 W1        30.31F

.........WESTERN NC.........

CITY           SKY/WX    TMP DP  RH WIND       PRES   REMARKS
CHARLOTTE      MOCLDY    38  32  79 CALM      30.29S
GREENSBORO     MOCLDY    38  32  79 S5        30.26F WCI  34
HICKORY        NOT AVBL
BOONE          NOT AVBL
ASHEVILLE      NOT AVBL

.....................REST OF SOUTH CAROLINA.....................

.........EASTERN SC.........

CITY           SKY/WX    TMP DP  RH WIND       PRES   REMARKS
CHARLESTON     PTCLDY    43  42  97 CALM      30.29F
BEAUFORT MCAS  FAIR      45  43  93 CALM      30.28F
HILTON HEAD    PTCLDY    46  46 100 N3        30.29F FOG

.........CENTRAL SC.........

CITY           SKY/WX    TMP DP  RH WIND       PRES   REMARKS
COLUMBIA       PTCLDY    33  30  88 CALM      30.30S
ORANGEBURG     CLEAR     37  34  89 CALM      30.30R FOG
SUMTER SHAW    PTCLDY    35  32  91 N2        30.29R

.........WESTERN SC.........

CITY           SKY/WX    TMP DP  RH WIND       PRES   REMARKS
GREENVILLE     NOT AVBL
ROCK HILL      CLEAR     33  32  96 CALM      30.30R
ANDERSON       CLEAR     34  33  96 E3        30.30R
CLEMSON        NOT AVBL
GREENWOOD      CLEAR     33  30  88 CALM      30.32R


...................COASTAL AND OFFSHORE REPORTS..................

................LOCAL PIERS AND NC RESERVE................


STATION/POSITION TIME  SKY/WX   TEMP    WIND        PRES    VSBY
                                AIR SEA DIR/SP/G
                 (UTC)          (F)     (DEG/KT/KT) (MB)    (MI)
JOHNY MRCER PIER 0800            47 56  320/  4/  5 1025.1F
NC RESRV MASNBRO 0700            41     300/  3     1026.0S
OCEAN CREST PIER 0800            47 55  350/  6/  7 1025.1F
SPRINGMAID  PIER 0800            43 53  330/  6/  6 1025.9S


................COASTAL AND OFFSHORE BUOYS................


STATION/POSITION TIME  SKY/WX   TEMP    WIND        PRES    VSBY
                                AIR SEA DIR/SP/G
                 (UTC)          (F)     (DEG/KT/KT) (MB)    (MI)
DIMNDSHOAL 41025 0800            56                 1025.9F
WVE H/P(F/S)=  2/ 8

CAPE LOOKOUT     0700            53     340/  3/  3 1025.9S
ONSLOW BAY 41036 0800            58 60  360/  8/ 10 1026.2F
WVE H/P(F/S)=  2/ 7 SWL H/P/D(F/S/D)=  2/140/ 7

5 WRITEBCH 41038 NOT AVBL
MASONBORO  41110 0800               53                N/A
WVE H/P(F/S)=  2/13 WND WVE H/P(F/S)=  2/ 7

WILM HARBR 41108 0800               57                N/A
WVE H/P(F/S)=  1/13 WND WVE H/P(F/S)=  2/ 7

27WRITEBCH 41037 0700            54 60   40/  6/  6 1027.1S
FRYING PAN 41013 0800            60 69   10/  6/ 10 1026.2F
WVE H/P(F/S)=  2/13 SWL H/P/D(F/S/D)=  2/140/13

SUNST NRSH 41024 0700            48      10/  6/  6   N/A
CAPRS NRSH 41029 NOT AVBL
EDISTO     41004 0800            63 74   20/ 12/ 14 1024.7F
WVE H/P(F/S)=  2/ 8 WND WVE H/P(F/S)=  2/ 4 SWL H/P/D(F/S/D)=  2/ 8



..........OFFSHORE BUOYS BEYOND 100 NM OFFSHORE...........
.....IN A TRIANGLE---HAT TO BERMUDA TO BAHAMAS TO HAT.....


STATION/POSITION TIME  SKY/WX   TEMP    WIND        PRES    VSBY
                                AIR SEA DIR/SP/G
                 (UTC)          (F)     (DEG/KT/KT) (MB)    (MI)
150E HAT   41001 NOT AVBL
W BERMUDA  41048 0705            68 73   30/  4/  6 1024.1R
WVE H/P(F/S)=  7/16 WND WVE H/P(F/S)=  2/ 4 SWL H/P/D(F/S/D)=  7/ 60/16

ATLANTIC S 41049 0726            72 77   20/ 16/ 21 1018.5R
WVE H/P(F/S)= 11/15 WND WVE H/P(F/S)=  5/ 6 SWL H/P/D(F/S/D)= 10/ 50/15

E BAHAMAS  41046 0748            76 79   30/ 10/ 12 1019.3F
WVE H/P(F/S)=  5/12 WND WVE H/P(F/S)=  2/ 4 SWL H/P/D(F/S/D)=  5/ 60/12

NE BAHAMAS 41047 0728            74 78   70/ 14/ 17 1021.3F
WVE H/P(F/S)=  5/12 WND WVE H/P(F/S)=  3/ 5 SWL H/P/D(F/S/D)=  3/ 70/12

120E CANVRL41010 0800            73 77   70/ 14/ 16 1022.3S
WVE H/P(F/S)=  3/ 9 WND WVE H/P(F/S)=  2/ 4 SWL H/P/D(F/S/D)=  2/100/ 9


END


USA.gov is the U.S. government's official web portal to all federal, state and local government web resources and services.